Flag for Germany Weather past 2 weeks in Gifhorn, Lower Saxony, Germany

Now
36 °F

Passing clouds.


Feels Like: 36 °F
Forecast: 36 / 57 °F
Wind: 2 mph from Northwest

Location: Celle Airport

Current Time: Apr 18, 2015 at 5:50:18 AM

Latest Report: Apr 18, 2015 at 4:20 AM


Visibility: N/A

Pressure: 30.24 "Hg

Humidity: 87%

Dew point: 32 °F

Location of GifhornLocation

Historic Weather in Gifhorn — Graph

°F

Gifhorn temperature yesterday

Maximum temperature yesterday: 54 °F (at 2:20 PM)
Minimum temperature yesterday: 36 °F (at 5:20 AM)
Average temperature yesterday: 45 °F

Past Weeks' High & Low Weather Summary

 TemperatureHumidityPressure
High73 °F (Apr 15, 4:20 PM)100% (Apr 4, 2:20 AM)30.57 "Hg (Apr 4, 2:20 AM)
Low28 °F (Apr 4, 2:20 AM)28% (Apr 5, 4:20 PM)29.86 "Hg (Apr 15, 6:20 PM)
Average47 °F67%30.21 "Hg
* Reported Apr 3 4:20 AM — Apr 18 4:20 AM, Gifhorn, Weather by CustomWeather, © 2015

Note: Actual official high and low records may vary slightly from our data, if they occured in-between our weather recording intervals... More about our weather records

Advertising

Gifhorn weather history for previous 24 hours

 ConditionsComfort  
Time TempWeatherWind HumidityBarometerVisibility
4:20 AM
Sat, Apr 18
36 °FPassing clouds.2 mph87%30.24 "HgN/A
3:20 AM39 °FPassing clouds.3 mph75%30.24 "HgN/A
2:20 AM39 °FPassing clouds.5 mph75%30.24 "HgN/A
1:20 AM43 °FPassing clouds.6 mph66%30.21 "HgN/A
12:20 AM46 °FPassing clouds.5 mph57%30.18 "HgN/A
11:20 PM
Fri, Apr 17
46 °FPassing clouds.5 mph66%30.18 "HgN/A
10:20 PM46 °FPassing clouds.3 mph66%30.15 "HgN/A
9:20 PM46 °FScattered clouds.6 mph62%30.12 "HgN/A
8:20 PM50 °FScattered clouds.6 mph54%30.09 "HgN/A
7:20 PM52 °FPartly sunny.7 mph44%30.07 "HgN/A
6:20 PM52 °FPartly sunny.8 mph41%30.07 "HgN/A
5:20 PM54 °FPartly sunny.8 mph35%30.04 "HgN/A
4:20 PM54 °FScattered clouds.9 mph38%30.04 "HgN/A
3:20 PM52 °FPartly sunny.10 mph41%30.04 "HgN/A
2:20 PM54 °FScattered clouds.12 mph41%30.04 "HgN/A
1:20 PM50 °FBroken clouds.8 mph50%30.04 "HgN/A
12:20 PM50 °FPartly sunny.8 mph50%30.04 "HgN/A
11:20 AM46 °FScattered clouds.7 mph66%30.04 "HgN/A
10:20 AM46 °FBroken clouds.8 mph71%30.01 "HgN/A
9:20 AM45 °FBroken clouds.8 mph76%30.01 "HgN/A
8:20 AM41 °FPartly sunny.6 mph81%30.01 "HgN/A
7:20 AM36 °FPartly sunny.3 mph93%30.01 "HgN/A
6:20 AM36 °FPartly cloudy.3 mph93%30.01 "HgN/A
5:20 AM36 °FPassing clouds.2 mph93%30.01 "HgN/A
Weather by CustomWeather, © 2015

See weather overviewHow to use our weather pages